,

(GMT )
Capri

Weather History for LIQC - August, 2013

Change the Weather History Date:

Thursday, August 22, 2013

  Actual Average Record
Temperature  
Mean Temperature 82 °F -  
Max Temperature 92 °F - - ()
Min Temperature 73 °F - - ()
Cooling Degree Days 18    
Growing Degree Days 32 (Base 50)    
Moisture  
Dew Point 71 °F    
Average Humidity 75    
Maximum Humidity 100    
Minimum Humidity 44    
Precipitation  
Precipitation 0.00 in - - ()
Sea Level Pressure  
Sea Level Pressure 29.97 in    
Wind  
Wind Speed 2 mph ()    
Max Wind Speed 5 mph    
Max Gust Speed -    
Visibility 8.3 miles    
Events      
T = Trace of Precipitation, MM = Missing Value Source: Averaged Metar Reports

Daily Weather History Graph

Daily Weather History Graph

Search for Another Location

Airport or City:

Trip Planner

Search our weather history database for the weather conditions in past years. The results will help you decide how hot, cold, wet, or windy it might be!

Date:

Astronomy

Aug. 22, 2013 Rise Set
Actual Time 6:20 AM CEST 7:50 PM CEST
Civil Twilight 5:51 AM CEST 8:19 PM CEST
Nautical Twilight 5:17 AM CEST 8:53 PM CEST
Astronomical Twilight 4:40 AM CEST 9:30 PM CEST
Moon 8:23 PM CEST (8/22) 7:50 AM CEST (8/22)
Length of Visible Light 14h 27m
Length of Day
13h 30m
Full, 98% of the Moon is Illuminated
Aug 22
Full
Aug 28
Last Quarter
Sep 5
New
Sep 12
First Quarter
Sep 19
Full

Hourly Weather History & Observations

Time (CEST) Temp. Heat Index Dew Point Humidity Pressure Visibility Wind Dir Wind Speed Gust Speed Precip Events Conditions
12:55 AM 75.2 °F - 68.0 °F 78% 29.98 in - North - - N/A   Clear
1:55 AM 75.2 °F - 71.6 °F 89% 29.98 in - North - - N/A   Clear
2:00 AM 75 °F - 71 °F 84% 29.97 in 12 mi 4.6 mph - -  
2:55 AM 75.2 °F - 71.6 °F 89% 29.98 in - North - - N/A   Clear
5:00 AM 74 °F - 66 °F 70% 29.96 in 12 mi 3.5 mph - -   Partly Cloudy
5:55 AM 73.4 °F - 66.2 °F 78% 29.98 in - North - - N/A   Clear
6:55 AM 73.4 °F - 66.2 °F 78% 29.98 in - North - - N/A   Clear
7:55 AM 73.4 °F - 68.0 °F 83% 29.98 in - North - - N/A   Clear
8:00 AM 74 °F - 68 °F 78% 29.96 in 12 mi Calm Calm - -  
8:55 AM 75.2 °F - 69.8 °F 83% 29.98 in - North - - N/A   Clear
9:55 AM 77.0 °F - 69.8 °F 78% 29.95 in - North - - N/A   Clear
10:55 AM 80.6 °F 84.6 °F 71.6 °F 74% 29.98 in - North - - N/A   Clear
11:00 AM 81 °F - 72 °F 67% 29.97 in 6 mi 3.5 mph - -  
11:55 AM 82.4 °F 86.3 °F 69.8 °F 66% 29.98 in - North - - N/A   Clear
12:55 PM 82.4 °F 87.2 °F 71.6 °F 70% 29.98 in - North - - N/A   Clear
1:55 PM 86.0 °F 93.4 °F 73.4 °F 66% 29.98 in - North - - N/A   Clear
2:00 PM 86 °F - 72 °F 56% 29.96 in 6 mi 4.6 mph - -  
2:55 PM 89.6 °F 96.2 °F 71.6 °F 55% 29.98 in - North - - N/A   Clear
3:55 PM 89.6 °F 94.7 °F 69.8 °F 52% 29.98 in - North - - N/A   Clear
4:55 PM 91.4 °F 98.4 °F 71.6 °F 52% 29.98 in - North - - N/A   Clear
5:00 PM 91 °F - 72 °F 44% 29.95 in 6 mi 4.6 mph - -  
5:55 PM 86.0 °F 90.4 °F 69.8 °F 58% 29.98 in - North - - N/A   Clear
6:55 PM 86.0 °F 96.9 °F 77.0 °F 74% 29.98 in - North - - N/A   Clear
7:55 PM 78.8 °F - 73.4 °F 83% 29.98 in - North - - N/A   Clear
8:00 PM 79 °F - 73 °F 78% 29.96 in 6 mi Calm Calm - -  
8:55 PM 77.0 °F - 73.4 °F 89% 29.95 in - North - - N/A   Clear
9:55 PM 77.0 °F - 75.2 °F 94% 29.95 in - North - - N/A   Clear
10:55 PM 75.2 °F - 75.2 °F 100% 29.98 in - North - - N/A   Clear
11:00 PM 76 °F - 75 °F 97% 29.97 in 6 mi Calm Calm - -  
11:55 PM 75.2 °F - 75.2 °F 100% 29.98 in - North - - N/A   Clear